STARLINK-4007 (52707 NORAD) Tracking and Keplerian Element Data
This shows tracking and keplerian element data for the satellite.
Feedback or suggestion? Click here.
Element | Value |
Catalog | 52707 |
Name | STARLINK-4007 |
Epoch Orbit | 130 |
Epoch Day | 228.91667824 |
Epoch Year | 2022 |
RAAN | 213.9305 |
Inclination | 53.2174 |
Eccentricity | 0.0001909 |
Argument of Perigee | 38.308 |
Mean Anonmoly | 114.5919 |
Mean Motion | 15.25243413 |
Decay Rate | -0.01065381 |
L1 | 1 52707U 22053BD 22228.91667824 -.01065381 00000+0 -45661-1 0 9990 |
L2 | 2 52707 53.2174 213.9305 0001909 38.3080 114.5919 15.25243413 1303 |
Live tracking and technical data element details for STARLINK-4007 (NORAD 52707). STARLINK-4007 can be tracked NOW for your location showing map with azimuth and elevation plus other details from your city location.
Track the satellite on the map from your city or location and see movement details for azimuth, elevation, latitude, longitude, range, height, and movement on the map or in text.
IsCatalogInMostPopularTable: catalog: 52707, numindb: 9
Update: records affected: 1
GetName: 52707 STARLINK-4007
Hit Count: updated at: Thu, 18 Aug 2022 18:54:39 GMT